Location: Yecla
(38.6122°N, 1.1101°W)
Time: 08:29:38
(UTC+02:00)

ISS - Pass Details

Date: 29 March 2019
Orbit: 408 x 410 km, 51.6° (Epoch: 22 April)

Event Time Altitude Azimuth Distance (km) Brightness Sun altitude
Rises 20:02:32 0° 294° (WNW) 2,334 2.0 -8.1°
Reaches altitude 10° 20:06:22 10° 339° (NNW) 1,473 -0.5 -8.9°
Maximum altitude 20:06:54 10° 349° (NNW) 1,457 -0.7 -9.0°
Drops below altitude 10° 20:07:26 10° 358° (N) 1,473 -0.8 -9.1°
Sets 20:11:17 0° 43° (NE) 2,335 -0.3 -9.8°
